This is the latest recevied weather packets stored in our database for station/object DG7FDL-7. If no packets are shown the sender has not sent any weather packets the latest 10 day(s).
| Time | Temp. | Humidity | Pressure | Rain* | Wind** | Luminosity | Snow |
|---|---|---|---|---|---|---|---|
| 1777846040 | 25° C | 36% | 1014.6 hPa | - | - | - | - |
| 1777845150 | 25° C | 36% | 1014.4 hPa | - | - | - | - |
| 1777844237 | 25° C | 36% | 1014.5 hPa | - | - | - | - |
| 1777843337 | 25° C | 36% | 1014.4 hPa | - | - | - | - |
| 1777842437 | 24.44° C | 37% | 1014.5 hPa | - | - | - | - |
| 1777841539 | 24.44° C | 37% | 1014.4 hPa | - | - | - | - |
| 1777840641 | 24.44° C | 37% | 1014.1 hPa | - | - | - | - |
| 1777839734 | 24.44° C | 36% | 1014 hPa | - | - | - | - |
| 1777838837 | 24.44° C | 36% | 1013.9 hPa | - | - | - | - |
| 1777837933 | 23.89° C | 37% | 1013.8 hPa | - | - | - | - |
| 1777837036 | 23.33° C | 38% | 1013.7 hPa | - | - | - | - |
| 1777836134 | 23.89° C | 36% | 1013.6 hPa | - | - | - | - |
| 1777835228 | 23.89° C | 36% | 1013.5 hPa | - | - | - | - |
| 1777834341 | 23.33° C | 34% | 1013.3 hPa | - | - | - | - |
| 1777833428 | 23.89° C | 34% | 1013.2 hPa | - | - | - | - |
| 1777832533 | 23.89° C | 34% | 1013.2 hPa | - | - | - | - |
| 1777831627 | 24.44° C | 34% | 1013.1 hPa | - | - | - | - |
| 1777830740 | 23.89° C | 33% | 1013.1 hPa | - | - | - | - |
| 1777829829 | 23.89° C | 34% | 1013.1 hPa | - | - | - | - |
| 1777828919 | 24.44° C | 34% | 1013.1 hPa | - | - | - | - |
| 1777828019 | 24.44° C | 33% | 1013.1 hPa | - | - | - | - |
| 1777827120 | 24.44° C | 34% | 1013 hPa | - | - | - | - |
| 1777826222 | 24.44° C | 34% | 1013 hPa | - | - | - | - |
| 1777825327 | 24.44° C | 33% | 1013 hPa | - | - | - | - |
| 1777824421 | 24.44° C | 34% | 1013.1 hPa | - | - | - | - |
* Rain since midnight (hover to see other rain measurements)
** Current wind speed in m/s (hover to see current wind gust speed)